Weather History for K2V5 - January, 2014

Change the Weather History Date:

Friday, January 3, 2014

  Actual Average (KHEQ) Record (KHEQ)
Temperature  
Mean Temperature 44 °F -  
Max Temperature 68 °F 38 °F 64 °F (2014)
Min Temperature 21 °F 11 °F 5 °F (2015)
Degree Days  
Heating Degree Days 20    
Moisture  
Dew Point 22 °F    
Average Humidity 53    
Maximum Humidity 89    
Minimum Humidity 14    
Precipitation  
Precipitation 0.00 in - - ()
Sea Level Pressure  
Sea Level Pressure 29.72 in    
Wind  
Wind Speed 9 mph (WSW)    
Max Wind Speed 22 mph    
Max Gust Speed 38 mph    
Visibility 10 miles    
Events      
Averages and records for this station are not official NWS values.
T = Trace of Precipitation, MM = Missing Value Source: NWS Daily Summary

Daily Weather History Graph

Daily Weather History Graph

Search for Another Location

Airport or City:

Trip Planner

Search our weather history database for the weather conditions in past years. The results will help you decide how hot, cold, wet, or windy it might be!

Date:

Astronomy

Jan. 03, 2014 Rise Set
Actual Time 7:11 AM MST 4:36 PM MST
Civil Twilight 6:40 AM MST 5:06 PM MST
Nautical Twilight 6:07 AM MST 5:40 PM MST
Astronomical Twilight 5:34 AM MST 6:13 PM MST
Moon 8:38 AM MST (1/3) 7:47 PM MST (1/3)
Length of Visible Light 10h 25m
Length of Day
9h 24m
Waxing Crescent, 8% of the Moon is Illuminated
Jan 3
Waxing Crescent
Jan 7
First Quarter
Jan 15
Full
Jan 23
Last Quarter
Jan 30
New

Hourly Weather History & Observations

Time (MST) Temp. Windchill Dew Point Humidity Pressure Visibility Wind Dir Wind Speed Gust Speed Precip Events Conditions
12:15 AM 32.9 °F 24.7 °F 22.5 °F 65% 30.01 in 10.0 mi WSW 10.4 mph - N/A   Clear
12:35 AM 32.7 °F 25.7 °F 22.3 °F 65% 30.00 in 10.0 mi West 8.1 mph - N/A   Clear
12:55 AM 31.3 °F 23.9 °F 22.1 °F 69% 29.99 in 10.0 mi SW 8.1 mph - N/A   Clear
1:15 AM 28.9 °F 21.9 °F 21.9 °F 75% 29.98 in 10.0 mi WSW 6.9 mph - N/A   Clear
1:35 AM 27.1 °F 23.2 °F 21.2 °F 78% 29.97 in 10.0 mi WSW 3.5 mph - N/A   Clear
1:55 AM 27.1 °F 23.2 °F 21.2 °F 78% 29.97 in 10.0 mi WNW 3.5 mph - N/A   Clear
2:15 AM 25.9 °F 21.7 °F 20.7 °F 81% 29.96 in 10.0 mi WSW 3.5 mph - N/A   Clear
2:35 AM 25.0 °F 18.1 °F 20.5 °F 83% 29.95 in 10.0 mi West 5.8 mph - N/A   Clear
2:55 AM 23.9 °F 16.8 °F 20.1 °F 85% 29.94 in 10.0 mi WSW 5.8 mph - N/A   Clear
3:15 AM 23.5 °F 19.1 °F 20.1 °F 87% 29.92 in 10.0 mi West 3.5 mph - N/A   Clear
3:35 AM 23.9 °F 16.8 °F 19.9 °F 85% 29.91 in 10.0 mi WSW 5.8 mph - N/A   Clear
3:55 AM 23.9 °F 16.8 °F 19.9 °F 85% 29.90 in 10.0 mi West 5.8 mph - N/A   Clear
4:15 AM 21.7 °F 12.3 °F 19.0 °F 89% 29.89 in 10.0 mi West 8.1 mph - N/A   Clear
4:35 AM 22.6 °F 13.4 °F 19.4 °F 87% 29.89 in 10.0 mi West 8.1 mph - N/A   Clear
4:55 AM 24.1 °F 14.4 °F 19.6 °F 83% 29.87 in 10.0 mi West 9.2 mph - N/A   Clear
5:15 AM 23.5 °F 14.5 °F 19.2 °F 84% 29.87 in 10.0 mi West 8.1 mph - N/A   Clear
5:35 AM 22.6 °F 14.3 °F 19.0 °F 86% 29.85 in 10.0 mi WSW 6.9 mph - N/A   Clear
5:55 AM 22.1 °F 12.0 °F 18.5 °F 86% 29.85 in 10.0 mi West 9.2 mph - N/A   Clear
6:15 AM 22.8 °F 15.5 °F 19.0 °F 85% 29.83 in 10.0 mi WSW 5.8 mph - N/A   Clear
6:35 AM 22.8 °F 12.9 °F 18.9 °F 85% 29.83 in 10.0 mi West 9.2 mph - N/A   Clear
6:55 AM 22.3 °F 14.9 °F 18.5 °F 85% 29.82 in 10.0 mi West 5.8 mph - N/A   Clear
7:15 AM 22.6 °F 14.3 °F 18.7 °F 85% 29.82 in 10.0 mi West 6.9 mph - N/A   Clear
7:35 AM 25.0 °F 17.1 °F 20.3 °F 82% 29.81 in 10.0 mi WSW 6.9 mph - N/A   Clear
7:55 AM 27.1 °F 19.7 °F 21.4 °F 79% 29.81 in 10.0 mi West 6.9 mph - N/A   Clear
8:15 AM 30.7 °F 22.6 °F 22.6 °F 72% 29.79 in 10.0 mi WSW 9.2 mph - N/A   Clear
8:35 AM 32.9 °F 24.7 °F 23.0 °F 67% 29.79 in 10.0 mi WSW 10.4 mph - N/A   Clear
8:55 AM 34.3 °F 27.7 °F 24.1 °F 66% 29.79 in 10.0 mi WSW 8.1 mph - N/A   Clear
9:15 AM 38.7 °F 31.4 °F 24.8 °F 58% 29.78 in 10.0 mi WSW 11.5 mph - N/A   Clear
9:55 AM 46.9 °F - 26.8 °F 45% 29.76 in 10.0 mi WSW 9.2 mph - N/A   Clear
10:15 AM 52.3 °F - 25.5 °F 35% 29.75 in 10.0 mi WSW 9.2 mph - N/A   Clear
10:35 AM 56.7 °F - 24.8 °F 29% 29.74 in 10.0 mi SW 11.5 mph - N/A   Clear
10:55 AM 59.4 °F - 23.4 °F 25% 29.71 in 10.0 mi SW 16.1 mph 20.7 mph N/A   Clear
11:15 AM 61.3 °F - 22.5 °F 23% 29.69 in 10.0 mi SW 16.1 mph - N/A   Clear
11:35 AM 63.0 °F - 22.1 °F 21% 29.68 in 10.0 mi SW 15.0 mph 20.7 mph N/A   Clear
11:55 AM 64.0 °F - 21.4 °F 20% 29.66 in 10.0 mi WSW 13.8 mph 20.7 mph N/A   Unknown
12:15 PM 65.8 °F - 18.5 °F 16% 29.65 in 10.0 mi WSW 12.7 mph - N/A   Unknown
12:35 PM 66.4 °F - 17.8 °F 16% 29.63 in 10.0 mi WSW 15.0 mph - N/A   Unknown
12:55 PM 67.1 °F - 17.6 °F 15% 29.61 in 10.0 mi WSW 16.1 mph - N/A   Clear
1:15 PM 67.3 °F - 18.0 °F 15% 29.60 in 10.0 mi WSW 18.4 mph - N/A   Clear
1:35 PM 67.3 °F - 17.8 °F 15% 29.59 in 10.0 mi WSW 12.7 mph - N/A   Clear
1:55 PM 67.5 °F - 17.6 °F 15% 29.58 in 10.0 mi WSW 16.1 mph - N/A   Clear
2:15 PM 68.0 °F - 17.8 °F 15% 29.56 in 10.0 mi SW 16.1 mph 19.6 mph N/A   Clear
2:35 PM 67.6 °F - 16.5 °F 14% 29.56 in 10.0 mi WSW 18.4 mph - N/A   Clear
2:55 PM 67.5 °F - 15.8 °F 14% 29.56 in 10.0 mi WSW 18.4 mph - N/A   Clear
3:15 PM 67.1 °F - 15.8 °F 14% 29.55 in 10.0 mi SW 13.8 mph 18.4 mph N/A   Clear
3:35 PM 66.2 °F - 15.8 °F 14% 29.54 in 10.0 mi SW 11.5 mph - N/A   Clear
3:55 PM 64.6 °F - 16.2 °F 15% 29.53 in 10.0 mi SW 9.2 mph - N/A   Clear
4:15 PM 61.2 °F - 18.9 °F 20% 29.54 in 10.0 mi WSW 6.9 mph - N/A   Clear
4:35 PM 56.8 °F - 19.9 °F 24% 29.54 in 10.0 mi WSW 8.1 mph - N/A   Scattered Clouds
4:55 PM 53.6 °F - 19.9 °F 27% 29.54 in 10.0 mi WSW 8.1 mph - N/A   Scattered Clouds
5:15 PM 49.3 °F - 20.3 °F 32% 29.55 in 10.0 mi WNW 9.2 mph - N/A   Clear
5:35 PM 44.1 °F 40.1 °F 22.3 °F 42% 29.55 in 10.0 mi West 6.9 mph - N/A   Scattered Clouds
5:55 PM 44.1 °F 40.1 °F 22.8 °F 43% 29.55 in 10.0 mi WSW 6.9 mph - N/A   Mostly Cloudy
6:15 PM 42.4 °F 38.1 °F 23.4 °F 47% 29.55 in 10.0 mi SW 6.9 mph - N/A   Overcast
6:35 PM 43.9 °F 39.9 °F 23.4 °F 44% 29.54 in 10.0 mi WSW 6.9 mph - N/A   Overcast
6:55 PM 44.4 °F 39.5 °F 24.1 °F 45% 29.56 in 10.0 mi WNW 9.2 mph - N/A   Overcast
7:15 PM 43.2 °F 39.0 °F 25.3 °F 49% 29.56 in 10.0 mi WNW 6.9 mph - N/A   Overcast
7:35 PM 43.0 °F 41.3 °F 26.2 °F 52% 29.57 in 10.0 mi West 3.5 mph - N/A   Overcast
7:55 PM 43.3 °F 41.7 °F 27.5 °F 54% 29.58 in 10.0 mi SW 3.5 mph - N/A   Overcast
8:15 PM 42.3 °F 37.3 °F 27.3 °F 56% 29.58 in 10.0 mi SW 8.1 mph - N/A   Overcast
8:35 PM 45.7 °F 41.5 °F 27.5 °F 49% 29.59 in 10.0 mi WNW 8.1 mph - N/A   Overcast
8:55 PM 42.8 °F 38.6 °F 28.4 °F 57% 29.61 in 10.0 mi West 6.9 mph - N/A   Overcast
9:15 PM 41.4 °F 38.4 °F 28.4 °F 60% 29.61 in 10.0 mi West 4.6 mph - N/A   Overcast
9:35 PM 43.0 °F 39.5 °F 28.0 °F 56% 29.62 in 10.0 mi NW 5.8 mph - N/A   Overcast
9:55 PM 41.7 °F - 28.2 °F 59% 29.63 in 10.0 mi Calm Calm - N/A   Overcast
10:15 PM 46.0 °F 41.4 °F 28.4 °F 50% 29.64 in 10.0 mi NW 9.2 mph - N/A   Overcast
10:35 PM 48.2 °F - 27.9 °F 45% 29.67 in 10.0 mi NNW 21.9 mph 38.0 mph N/A   Overcast
10:55 PM 43.2 °F 36.6 °F 29.8 °F 59% 29.68 in 10.0 mi North 12.7 mph 19.6 mph N/A   Overcast
11:15 PM 40.6 °F 32.0 °F 27.5 °F 59% 29.71 in 10.0 mi North 17.3 mph 23.0 mph N/A   Mostly Cloudy
11:35 PM 39.4 °F 30.1 °F 25.0 °F 56% 29.72 in 10.0 mi North 18.4 mph 27.6 mph N/A   Overcast
11:55 PM 37.0 °F 30.4 °F 24.8 °F 61% 29.73 in 10.0 mi North 9.2 mph - N/A   Mostly Cloudy